Precipitable_Water
0.45 0.34 0.31 0.29 0.31 0.34 0.37 0.38 0.38 0.38 0.38 0.37 0.36 0.33 0.32 0.33 0.35 0.40 0.42 0.47 0.48 0.43 0.40 0.41 0.41 0.40 0.41 0.43 0.44 0.46 0.48 0.46 0.45 0.44 0.43 0.43 0.43 0.43 0.42 0.42 0.42 0.42 0.42 0.45 0.46 0.46 0.47 0.49 0.51 0.53 0.54 0.55 0.58 0.59 0.61 0.63 0.63 0.64 0.64 0.65 0.63 0.66 0.66 0.65 0.64 0.62 0.60 0.56 0.56 0.59 0.58 0.56 0.57 0.57 0.58 0.59 0.60 0.61 0.61 0.62 0.62 0.63 0.63 0.64 0.64 0.64
0.44 0.34 0.32 0.35 0.38 0.39 0.39 0.41 0.41 0.40 0.39 0.37 0.35 0.34 0.33 0.35 0.33 0.40 0.42 0.47 0.49 0.42 0.39 0.42 0.40 0.39 0.41 0.44 0.45 0.47 0.45 0.43 0.43 0.42 0.41 0.41 0.42 0.42 0.42 0.42 0.42 0.42 0.44 0.45 0.44 0.45 0.47 0.48 0.50 0.52 0.53 0.54 0.54 0.57 0.60 0.61 0.62 0.63 0.64 0.64 0.64 0.65 0.65 0.65 0.64 0.62 0.60 0.59 0.56 0.53 0.52 0.53 0.53 0.53 0.53 0.51 0.53 0.53 0.55 0.55 0.54 0.53 0.53 0.54 0.54 0.54
0.36 0.32 0.35 0.41 0.43 0.43 0.42 0.42 0.42 0.40 0.37 0.37 0.34 0.34 0.33 0.34 0.39 0.43 0.44 0.47 0.47 0.44 0.39 0.42 0.38 0.39 0.42 0.44 0.46 0.46 0.45 0.45 0.45 0.43 0.42 0.41 0.41 0.41 0.41 0.42 0.42 0.42 0.42 0.42 0.43 0.44 0.46 0.48 0.50 0.51 0.52 0.53 0.54 0.56 0.58 0.60 0.60 0.61 0.61 0.61 0.61 0.61 0.61 0.61 0.61 0.59 0.56 0.57 0.56 0.53 0.52 0.51 0.49 0.50 0.49 0.48 0.48 0.48 0.48 0.48 0.49 0.49 0.50 0.50 0.50 0.51
0.31 0.34 0.40 0.44 0.44 0.42 0.41 0.42 0.41 0.40 0.39 0.36 0.35 0.34 0.33 0.39 0.39 0.37 0.45 0.48 0.48 0.45 0.41 0.42 0.39 0.40 0.43 0.45 0.46 0.47 0.46 0.46 0.46 0.45 0.43 0.43 0.41 0.41 0.41 0.42 0.42 0.42 0.41 0.40 0.41 0.42 0.45 0.47 0.49 0.50 0.50 0.51 0.53 0.54 0.55 0.56 0.57 0.58 0.58 0.57 0.57 0.56 0.56 0.55 0.56 0.55 0.54 0.53 0.52 0.50 0.48 0.47 0.46 0.45 0.47 0.47 0.48 0.48 0.48 0.48 0.49 0.49 0.48 0.48 0.48 0.48
0.35 0.40 0.46 0.46 0.46 0.44 0.41 0.42 0.40 0.38 0.35 0.39 0.39 0.38 0.38 0.40 0.43 0.43 0.43 0.47 0.48 0.48 0.47 0.44 0.39 0.37 0.40 0.39 0.40 0.44 0.46 0.44 0.44 0.44 0.43 0.44 0.44 0.44 0.44 0.44 0.44 0.41 0.41 0.40 0.41 0.43 0.44 0.46 0.47 0.48 0.49 0.51 0.51 0.52 0.52 0.53 0.54 0.54 0.53 0.53 0.52 0.52 0.51 0.51 0.51 0.50 0.49 0.47 0.46 0.46 0.46 0.47 0.46 0.46 0.45 0.45 0.44 0.44 0.44 0.44 0.43 0.43 0.44 0.44 0.44 0.44
0.39 0.45 0.48 0.45 0.44 0.44 0.42 0.39 0.40 0.40 0.36 0.38 0.42 0.42 0.43 0.45 0.43 0.45 0.46 0.44 0.41 0.39 0.45 0.42 0.31 0.29 0.36 0.35 0.35 0.38 0.39 0.38 0.41 0.40 0.40 0.41 0.42 0.43 0.41 0.42 0.43 0.42 0.42 0.41 0.42 0.43 0.45 0.45 0.47 0.48 0.49 0.49 0.50 0.50 0.50 0.51 0.51 0.50 0.50 0.50 0.50 0.49 0.49 0.48 0.48 0.48 0.47 0.45 0.43 0.43 0.41 0.40 0.41 0.40 0.40 0.38 0.38 0.38 0.38 0.38 0.39 0.40 0.40 0.40 0.40 0.40
0.41 0.48 0.47 0.44 0.44 0.43 0.42 0.40 0.43 0.44 0.38 0.37 0.39 0.48 0.47 0.46 0.46 0.45 0.44 0.43 0.35 0.32 0.39 0.44 0.30 0.26 0.34 0.33 0.34 0.36 0.36 0.36 0.39 0.38 0.38 0.40 0.41 0.41 0.41 0.42 0.42 0.41 0.41 0.43 0.44 0.44 0.44 0.45 0.46 0.46 0.47 0.47 0.47 0.48 0.49 0.49 0.49 0.49 0.49 0.48 0.48 0.47 0.46 0.47 0.47 0.47 0.46 0.44 0.43 0.42 0.41 0.40 0.39 0.37 0.38 0.39 0.39 0.37 0.37 0.38 0.37 0.36 0.37 0.37 0.36 0.36
0.45 0.45 0.46 0.47 0.44 0.41 0.40 0.37 0.43 0.45 0.42 0.38 0.48 0.50 0.50 0.47 0.46 0.45 0.44 0.43 0.40 0.44 0.44 0.43 0.39 0.29 0.28 0.33 0.37 0.38 0.36 0.36 0.36 0.37 0.38 0.39 0.40 0.40 0.41 0.41 0.41 0.41 0.42 0.42 0.42 0.43 0.44 0.45 0.45 0.44 0.46 0.46 0.46 0.47 0.47 0.47 0.47 0.46 0.46 0.46 0.45 0.45 0.45 0.45 0.46 0.45 0.44 0.42 0.42 0.40 0.39 0.38 0.37 0.37 0.37 0.38 0.38 0.38 0.38 0.37 0.36 0.35 0.35 0.35 0.34 0.33
0.46 0.43 0.44 0.43 0.43 0.41 0.38 0.43 0.49 0.51 0.45 0.45 0.52 0.54 0.51 0.50 0.48 0.48 0.45 0.42 0.42 0.40 0.33 0.38 0.41 0.32 0.28 0.33 0.39 0.38 0.33 0.33 0.33 0.35 0.37 0.38 0.39 0.40 0.41 0.41 0.41 0.42 0.42 0.42 0.42 0.42 0.43 0.43 0.44 0.45 0.44 0.45 0.45 0.45 0.44 0.44 0.44 0.44 0.44 0.44 0.44 0.44 0.44 0.44 0.44 0.43 0.43 0.41 0.40 0.38 0.37 0.36 0.37 0.38 0.38 0.38 0.38 0.37 0.37 0.36 0.35 0.34 0.34 0.33 0.33 0.33
0.50 0.50 0.49 0.49 0.45 0.40 0.46 0.50 0.52 0.52 0.46 0.52 0.56 0.56 0.54 0.53 0.51 0.49 0.45 0.42 0.40 0.36 0.29 0.35 0.38 0.29 0.26 0.33 0.35 0.36 0.33 0.32 0.33 0.35 0.37 0.38 0.39 0.40 0.40 0.41 0.41 0.41 0.42 0.42 0.42 0.42 0.42 0.43 0.43 0.43 0.43 0.42 0.42 0.43 0.43 0.43 0.43 0.43 0.43 0.42 0.42 0.42 0.42 0.43 0.42 0.42 0.41 0.39 0.38 0.37 0.36 0.36 0.36 0.37 0.37 0.38 0.37 0.36 0.36 0.35 0.34 0.33 0.33 0.32 0.32 0.31
0.52 0.57 0.58 0.51 0.46 0.49 0.51 0.53 0.55 0.54 0.55 0.57 0.55 0.51 0.50 0.49 0.48 0.48 0.46 0.43 0.38 0.29 0.29 0.37 0.38 0.34 0.25 0.30 0.32 0.32 0.32 0.34 0.34 0.35 0.37 0.39 0.39 0.41 0.41 0.40 0.40 0.40 0.41 0.41 0.41 0.41 0.41 0.42 0.41 0.41 0.40 0.40 0.41 0.41 0.42 0.42 0.42 0.42 0.41 0.41 0.40 0.41 0.41 0.41 0.41 0.40 0.38 0.38 0.38 0.38 0.38 0.37 0.37 0.37 0.37 0.36 0.36 0.35 0.34 0.33 0.33 0.33 0.32 0.32 0.32 0.32
0.51 0.51 0.51 0.52 0.57 0.56 0.56 0.52 0.57 0.58 0.58 0.55 0.50 0.47 0.47 0.44 0.46 0.42 0.40 0.40 0.30 0.25 0.31 0.36 0.36 0.36 0.25 0.27 0.33 0.36 0.38 0.37 0.36 0.34 0.35 0.37 0.38 0.39 0.39 0.40 0.40 0.40 0.40 0.41 0.40 0.40 0.40 0.40 0.40 0.40 0.39 0.39 0.40 0.40 0.41 0.41 0.41 0.41 0.40 0.40 0.39 0.40 0.40 0.40 0.40 0.39 0.38 0.38 0.38 0.39 0.38 0.38 0.38 0.37 0.36 0.35 0.34 0.34 0.33 0.33 0.32 0.32 0.31 0.31 0.31 0.31
0.43 0.46 0.53 0.54 0.60 0.57 0.53 0.51 0.52 0.55 0.55 0.52 0.50 0.47 0.39 0.35 0.35 0.29 0.32 0.27 0.27 0.25 0.32 0.36 0.36 0.31 0.28 0.32 0.34 0.36 0.37 0.38 0.38 0.37 0.37 0.37 0.37 0.38 0.39 0.39 0.40 0.40 0.40 0.40 0.40 0.40 0.39 0.39 0.38 0.38 0.39 0.39 0.39 0.40 0.40 0.40 0.40 0.40 0.40 0.39 0.38 0.39 0.39 0.39 0.39 0.39 0.38 0.38 0.38 0.38 0.38 0.38 0.37 0.36 0.35 0.34 0.33 0.33 0.32 0.31 0.31 0.30 0.30 0.30 0.29 0.29
0.42 0.51 0.52 0.53 0.56 0.57 0.56 0.45 0.44 0.45 0.49 0.49 0.45 0.42 0.37 0.30 0.28 0.25 0.27 0.29 0.28 0.31 0.36 0.35 0.37 0.29 0.31 0.34 0.38 0.36 0.38 0.39 0.39 0.39 0.38 0.38 0.38 0.38 0.39 0.40 0.40 0.40 0.40 0.40 0.40 0.40 0.39 0.39 0.39 0.39 0.40 0.40 0.40 0.40 0.40 0.40 0.40 0.40 0.40 0.39 0.38 0.38 0.39 0.39 0.39 0.38 0.38 0.38 0.38 0.38 0.37 0.36 0.36 0.35 0.35 0.34 0.33 0.32 0.31 0.31 0.30 0.30 0.29 0.29 0.28 0.27
0.33 0.34 0.43 0.49 0.43 0.56 0.53 0.52 0.51 0.50 0.49 0.48 0.51 0.46 0.40 0.36 0.30 0.25 0.27 0.24 0.25 0.27 0.31 0.35 0.31 0.25 0.25 0.28 0.37 0.39 0.39 0.40 0.39 0.39 0.40 0.40 0.40 0.41 0.41 0.41 0.41 0.41 0.41 0.41 0.41 0.40 0.40 0.40 0.40 0.40 0.40 0.40 0.40 0.40 0.40 0.40 0.40 0.39 0.39 0.38 0.37 0.37 0.37 0.37 0.37 0.36 0.36 0.36 0.36 0.36 0.36 0.35 0.35 0.34 0.33 0.33 0.32 0.31 0.30 0.30 0.29 0.29 0.28 0.27 0.27 0.25
0.38 0.39 0.46 0.54 0.54 0.56 0.51 0.57 0.58 0.54 0.50 0.51 0.51 0.51 0.42 0.38 0.43 0.31 0.31 0.30 0.29 0.28 0.27 0.29 0.28 0.31 0.29 0.36 0.38 0.40 0.40 0.39 0.39 0.39 0.40 0.40 0.42 0.42 0.41 0.40 0.40 0.41 0.41 0.41 0.41 0.40 0.41 0.41 0.41 0.41 0.40 0.40 0.40 0.40 0.39 0.39 0.39 0.38 0.37 0.37 0.36 0.35 0.35 0.35 0.35 0.35 0.35 0.35 0.35 0.35 0.34 0.34 0.34 0.33 0.33 0.32 0.31 0.31 0.30 0.29 0.28 0.27 0.27 0.26 0.25 0.24
0.42 0.37 0.49 0.52 0.55 0.53 0.54 0.57 0.56 0.58 0.38 0.44 0.47 0.38 0.42 0.51 0.45 0.37 0.36 0.36 0.34 0.31 0.26 0.32 0.30 0.32 0.36 0.36 0.37 0.38 0.37 0.37 0.38 0.39 0.40 0.41 0.41 0.41 0.41 0.41 0.41 0.41 0.41 0.41 0.41 0.41 0.41 0.41 0.41 0.41 0.40 0.40 0.39 0.39 0.38 0.38 0.37 0.36 0.36 0.35 0.34 0.35 0.35 0.35 0.35 0.35 0.35 0.35 0.35 0.35 0.35 0.34 0.34 0.33 0.32 0.32 0.31 0.30 0.30 0.29 0.28 0.27 0.26 0.25 0.24 0.23
0.40 0.39 0.49 0.48 0.45 0.54 0.58 0.58 0.57 0.57 0.57 0.49 0.39 0.44 0.52 0.54 0.49 0.40 0.30 0.31 0.30 0.25 0.25 0.30 0.26 0.27 0.27 0.23 0.34 0.36 0.35 0.36 0.37 0.38 0.40 0.41 0.42 0.41 0.41 0.41 0.41 0.41 0.42 0.42 0.42 0.42 0.42 0.42 0.41 0.41 0.40 0.39 0.38 0.38 0.37 0.36 0.36 0.36 0.36 0.35 0.35 0.35 0.35 0.35 0.36 0.36 0.36 0.36 0.36 0.35 0.35 0.34 0.33 0.32 0.32 0.31 0.30 0.29 0.28 0.27 0.26 0.25 0.24 0.23 0.23 0.22
0.51 0.38 0.43 0.49 0.49 0.52 0.57 0.56 0.52 0.56 0.58 0.50 0.46 0.56 0.43 0.35 0.34 0.39 0.36 0.25 0.24 0.23 0.24 0.26 0.28 0.27 0.27 0.27 0.31 0.32 0.33 0.35 0.37 0.39 0.40 0.40 0.41 0.41 0.41 0.42 0.42 0.42 0.42 0.42 0.42 0.42 0.42 0.41 0.41 0.40 0.39 0.38 0.37 0.36 0.36 0.37 0.37 0.37 0.37 0.37 0.36 0.36 0.36 0.36 0.37 0.37 0.36 0.36 0.36 0.35 0.34 0.33 0.33 0.33 0.32 0.31 0.31 0.30 0.28 0.27 0.27 0.26 0.24 0.24 0.23 0.22
0.53 0.40 0.40 0.51 0.49 0.51 0.53 0.51 0.39 0.44 0.54 0.56 0.56 0.49 0.52 0.44 0.38 0.34 0.34 0.33 0.31 0.25 0.24 0.23 0.26 0.23 0.29 0.31 0.33 0.33 0.35 0.37 0.37 0.38 0.39 0.41 0.42 0.42 0.42 0.41 0.41 0.42 0.42 0.43 0.43 0.43 0.42 0.41 0.40 0.39 0.38 0.38 0.37 0.37 0.38 0.37 0.38 0.37 0.37 0.37 0.37 0.37 0.37 0.37 0.37 0.36 0.36 0.36 0.35 0.34 0.34 0.33 0.33 0.32 0.31 0.30 0.29 0.28 0.27 0.27 0.26 0.25 0.24 0.24 0.23 0.21
0.49 0.52 0.37 0.45 0.53 0.50 0.40 0.45 0.42 0.45 0.42 0.44 0.45 0.43 0.45 0.43 0.46 0.43 0.40 0.35 0.30 0.26 0.25 0.23 0.22 0.25 0.31 0.37 0.36 0.36 0.37 0.38 0.39 0.39 0.41 0.42 0.42 0.43 0.42 0.42 0.43 0.44 0.43 0.44 0.43 0.42 0.42 0.41 0.41 0.40 0.40 0.39 0.39 0.39 0.38 0.38 0.38 0.38 0.38 0.38 0.38 0.37 0.37 0.37 0.36 0.35 0.35 0.35 0.34 0.33 0.33 0.32 0.32 0.31 0.30 0.28 0.27 0.26 0.25 0.25 0.24 0.24 0.23 0.22 0.21 0.20
0.49 0.47 0.39 0.42 0.43 0.41 0.42 0.51 0.51 0.49 0.48 0.45 0.43 0.40 0.42 0.40 0.36 0.32 0.28 0.38 0.35 0.31 0.26 0.24 0.21 0.28 0.34 0.41 0.38 0.39 0.39 0.39 0.42 0.42 0.42 0.43 0.43 0.43 0.43 0.45 0.45 0.44 0.45 0.44 0.43 0.43 0.43 0.42 0.42 0.42 0.41 0.40 0.39 0.38 0.38 0.38 0.38 0.38 0.38 0.39 0.38 0.38 0.37 0.36 0.35 0.35 0.35 0.35 0.34 0.33 0.32 0.32 0.31 0.30 0.29 0.27 0.26 0.25 0.24 0.24 0.23 0.23 0.22 0.21 0.21 0.20
0.57 0.51 0.47 0.40 0.41 0.43 0.48 0.52 0.55 0.55 0.53 0.50 0.48 0.43 0.46 0.44 0.41 0.34 0.26 0.29 0.35 0.34 0.35 0.32 0.26 0.27 0.39 0.42 0.40 0.40 0.42 0.42 0.43 0.44 0.43 0.43 0.43 0.44 0.45 0.46 0.46 0.46 0.44 0.43 0.44 0.44 0.44 0.44 0.43 0.42 0.41 0.40 0.39 0.39 0.39 0.39 0.39 0.39 0.39 0.39 0.38 0.37 0.37 0.36 0.35 0.35 0.35 0.34 0.34 0.33 0.33 0.33 0.32 0.30 0.28 0.26 0.24 0.23 0.23 0.22 0.22 0.22 0.20 0.19 0.19 0.19
0.60 0.49 0.43 0.43 0.47 0.50 0.52 0.54 0.55 0.55 0.52 0.47 0.47 0.48 0.45 0.40 0.41 0.38 0.36 0.37 0.33 0.33 0.30 0.29 0.26 0.29 0.38 0.42 0.43 0.43 0.44 0.45 0.46 0.45 0.43 0.43 0.44 0.45 0.46 0.46 0.46 0.45 0.44 0.45 0.45 0.45 0.45 0.45 0.44 0.42 0.41 0.40 0.40 0.40 0.40 0.40 0.40 0.40 0.39 0.39 0.38 0.37 0.36 0.36 0.36 0.36 0.35 0.35 0.34 0.34 0.33 0.32 0.31 0.30 0.27 0.24 0.23 0.22 0.22 0.21 0.21 0.20 0.19 0.19 0.19 0.18
0.48 0.48 0.45 0.39 0.38 0.40 0.43 0.47 0.47 0.51 0.50 0.43 0.41 0.44 0.46 0.46 0.45 0.43 0.42 0.41 0.32 0.31 0.32 0.29 0.22 0.28 0.37 0.43 0.44 0.44 0.44 0.44 0.44 0.45 0.45 0.43 0.45 0.46 0.46 0.46 0.45 0.45 0.45 0.44 0.45 0.45 0.45 0.44 0.43 0.42 0.42 0.41 0.41 0.41 0.40 0.40 0.40 0.39 0.39 0.39 0.38 0.38 0.37 0.36 0.37 0.36 0.35 0.34 0.33 0.33 0.33 0.33 0.31 0.29 0.26 0.23 0.21 0.20 0.19 0.20 0.20 0.20 0.19 0.19 0.19 0.19
0.53 0.47 0.46 0.36 0.31 0.28 0.27 0.27 0.29 0.34 0.39 0.44 0.45 0.44 0.45 0.43 0.42 0.40 0.34 0.35 0.30 0.31 0.34 0.29 0.27 0.35 0.40 0.43 0.43 0.44 0.44 0.44 0.44 0.45 0.46 0.46 0.46 0.45 0.46 0.45 0.44 0.44 0.44 0.45 0.45 0.45 0.44 0.44 0.45 0.44 0.42 0.41 0.41 0.40 0.40 0.40 0.40 0.40 0.40 0.39 0.39 0.38 0.37 0.37 0.36 0.35 0.34 0.33 0.33 0.32 0.32 0.31 0.29 0.26 0.24 0.22 0.21 0.20 0.20 0.21 0.21 0.20 0.20 0.19 0.19 0.19
0.53 0.53 0.49 0.44 0.40 0.36 0.37 0.41 0.46 0.47 0.45 0.39 0.40 0.43 0.43 0.45 0.45 0.43 0.41 0.36 0.30 0.33 0.31 0.31 0.33 0.35 0.36 0.40 0.41 0.42 0.43 0.43 0.43 0.44 0.45 0.46 0.46 0.46 0.45 0.44 0.44 0.44 0.45 0.46 0.46 0.46 0.45 0.44 0.43 0.43 0.43 0.42 0.41 0.41 0.40 0.40 0.40 0.39 0.39 0.39 0.39 0.38 0.37 0.36 0.35 0.34 0.33 0.33 0.31 0.29 0.27 0.26 0.26 0.26 0.24 0.23 0.22 0.22 0.22 0.22 0.21 0.21 0.20 0.20 0.19 0.19
0.51 0.47 0.47 0.48 0.47 0.47 0.49 0.47 0.48 0.47 0.42 0.43 0.42 0.41 0.43 0.43 0.43 0.41 0.37 0.32 0.39 0.35 0.28 0.32 0.37 0.34 0.35 0.40 0.41 0.42 0.43 0.45 0.46 0.46 0.45 0.45 0.45 0.45 0.45 0.45 0.46 0.47 0.47 0.47 0.46 0.45 0.44 0.43 0.43 0.42 0.43 0.42 0.41 0.41 0.40 0.39 0.39 0.39 0.39 0.38 0.38 0.37 0.36 0.35 0.34 0.32 0.30 0.29 0.27 0.26 0.26 0.27 0.27 0.26 0.25 0.24 0.24 0.24 0.23 0.22 0.21 0.21 0.20 0.20 0.20 0.19
0.52 0.46 0.48 0.50 0.47 0.50 0.51 0.49 0.49 0.48 0.46 0.45 0.44 0.43 0.42 0.43 0.43 0.39 0.38 0.40 0.40 0.34 0.28 0.34 0.38 0.35 0.36 0.41 0.43 0.44 0.46 0.46 0.46 0.46 0.46 0.46 0.46 0.46 0.46 0.45 0.45 0.46 0.46 0.45 0.44 0.44 0.43 0.42 0.42 0.42 0.42 0.42 0.41 0.40 0.39 0.39 0.39 0.39 0.38 0.37 0.36 0.35 0.34 0.33 0.32 0.30 0.29 0.28 0.27 0.28 0.28 0.27 0.27 0.26 0.25 0.25 0.24 0.24 0.23 0.22 0.21 0.21 0.20 0.20 0.20 0.20
0.54 0.47 0.49 0.51 0.48 0.49 0.49 0.49 0.50 0.47 0.46 0.45 0.44 0.44 0.44 0.43 0.41 0.42 0.42 0.43 0.42 0.38 0.39 0.40 0.39 0.37 0.40 0.44 0.46 0.48 0.50 0.49 0.49 0.49 0.47 0.46 0.46 0.45 0.45 0.44 0.45 0.45 0.44 0.44 0.43 0.42 0.42 0.42 0.42 0.41 0.41 0.41 0.40 0.39 0.39 0.39 0.39 0.38 0.36 0.35 0.35 0.33 0.32 0.31 0.30 0.29 0.29 0.29 0.29 0.29 0.28 0.27 0.26 0.26 0.25 0.25 0.24 0.23 0.22 0.21 0.21 0.20 0.20 0.21 0.21 0.21
0.55 0.47 0.52 0.52 0.47 0.46 0.49 0.50 0.50 0.48 0.46 0.42 0.44 0.44 0.44 0.44 0.44 0.45 0.44 0.44 0.44 0.42 0.41 0.41 0.40 0.38 0.44 0.49 0.50 0.52 0.52 0.51 0.49 0.46 0.46 0.45 0.45 0.44 0.44 0.44 0.44 0.43 0.42 0.42 0.41 0.40 0.40 0.40 0.40 0.40 0.39 0.39 0.39 0.38 0.38 0.38 0.37 0.36 0.36 0.35 0.34 0.33 0.32 0.32 0.30 0.29 0.29 0.29 0.29 0.29 0.27 0.27 0.26 0.26 0.25 0.24 0.23 0.22 0.21 0.21 0.20 0.21 0.21 0.21 0.21 0.21
0.58 0.51 0.56 0.52 0.44 0.43 0.48 0.48 0.49 0.49 0.48 0.46 0.44 0.44 0.43 0.43 0.41 0.43 0.42 0.45 0.43 0.40 0.41 0.41 0.38 0.36 0.44 0.51 0.52 0.51 0.48 0.46 0.45 0.44 0.44 0.43 0.44 0.44 0.43 0.43 0.42 0.41 0.40 0.39 0.38 0.38 0.38 0.37 0.37 0.36 0.36 0.36 0.36 0.36 0.35 0.35 0.35 0.35 0.34 0.34 0.34 0.34 0.34 0.32 0.30 0.29 0.29 0.29 0.30 0.29 0.27 0.26 0.26 0.25 0.24 0.23 0.21 0.21 0.21 0.21 0.21 0.21 0.21 0.22 0.21 0.21
0.57 0.53 0.49 0.48 0.42 0.41 0.47 0.51 0.49 0.49 0.47 0.41 0.38 0.39 0.45 0.47 0.48 0.49 0.49 0.49 0.47 0.47 0.42 0.39 0.39 0.46 0.49 0.50 0.46 0.45 0.45 0.44 0.43 0.42 0.43 0.44 0.44 0.43 0.42 0.41 0.40 0.38 0.37 0.37 0.37 0.37 0.36 0.36 0.35 0.34 0.32 0.31 0.31 0.31 0.32 0.33 0.33 0.33 0.33 0.33 0.34 0.34 0.33 0.31 0.29 0.29 0.28 0.29 0.30 0.28 0.26 0.26 0.25 0.23 0.22 0.21 0.21 0.20 0.20 0.20 0.21 0.21 0.22 0.22 0.22 0.21
0.59 0.55 0.50 0.52 0.41 0.41 0.45 0.48 0.50 0.43 0.31 0.28 0.37 0.49 0.49 0.46 0.48 0.46 0.44 0.46 0.49 0.50 0.46 0.48 0.48 0.49 0.48 0.46 0.43 0.42 0.41 0.41 0.43 0.46 0.47 0.45 0.43 0.42 0.41 0.39 0.37 0.36 0.36 0.35 0.34 0.33 0.32 0.31 0.30 0.29 0.29 0.29 0.29 0.30 0.32 0.33 0.32 0.33 0.34 0.33 0.33 0.32 0.31 0.29 0.27 0.27 0.28 0.29 0.28 0.26 0.25 0.24 0.23 0.21 0.20 0.20 0.20 0.20 0.20 0.20 0.21 0.21 0.22 0.22 0.21 0.20
0.56 0.55 0.51 0.53 0.44 0.40 0.44 0.45 0.38 0.29 0.28 0.38 0.46 0.46 0.50 0.51 0.51 0.48 0.46 0.48 0.49 0.51 0.51 0.49 0.48 0.46 0.45 0.45 0.44 0.45 0.45 0.47 0.47 0.45 0.45 0.46 0.43 0.39 0.35 0.34 0.33 0.32 0.30 0.29 0.28 0.27 0.26 0.25 0.25 0.25 0.25 0.26 0.27 0.28 0.28 0.29 0.30 0.31 0.31 0.30 0.29 0.28 0.27 0.27 0.26 0.27 0.27 0.27 0.26 0.25 0.24 0.23 0.21 0.19 0.19 0.19 0.19 0.20 0.20 0.20 0.21 0.21 0.21 0.21 0.20 0.20
0.54 0.52 0.51 0.48 0.47 0.44 0.40 0.38 0.27 0.27 0.38 0.43 0.43 0.45 0.48 0.51 0.50 0.48 0.44 0.46 0.49 0.48 0.47 0.44 0.44 0.44 0.45 0.45 0.46 0.46 0.46 0.46 0.46 0.45 0.43 0.40 0.38 0.35 0.32 0.31 0.29 0.28 0.27 0.26 0.24 0.23 0.23 0.23 0.22 0.22 0.23 0.25 0.25 0.25 0.25 0.25 0.26 0.26 0.26 0.27 0.26 0.26 0.26 0.26 0.26 0.26 0.26 0.25 0.25 0.24 0.23 0.21 0.19 0.19 0.19 0.19 0.19 0.19 0.19 0.20 0.20 0.20 0.20 0.20 0.20 0.20
0.59 0.56 0.52 0.44 0.48 0.36 0.36 0.36 0.35 0.41 0.40 0.40 0.38 0.39 0.43 0.41 0.42 0.41 0.35 0.38 0.44 0.46 0.46 0.44 0.43 0.44 0.43 0.43 0.44 0.45 0.46 0.45 0.40 0.38 0.38 0.37 0.35 0.35 0.32 0.30 0.28 0.26 0.24 0.23 0.23 0.22 0.23 0.24 0.24 0.24 0.24 0.24 0.24 0.23 0.23 0.24 0.25 0.25 0.25 0.25 0.25 0.25 0.25 0.25 0.24 0.24 0.24 0.23 0.22 0.21 0.21 0.20 0.20 0.20 0.19 0.19 0.19 0.19 0.19 0.19 0.19 0.19 0.20 0.19 0.20 0.20
0.62 0.51 0.52 0.45 0.40 0.45 0.36 0.33 0.34 0.33 0.28 0.32 0.41 0.45 0.48 0.48 0.47 0.47 0.41 0.37 0.42 0.45 0.46 0.43 0.41 0.41 0.41 0.43 0.44 0.43 0.42 0.37 0.31 0.31 0.34 0.35 0.34 0.32 0.31 0.28 0.26 0.24 0.23 0.23 0.24 0.24 0.24 0.24 0.24 0.24 0.23 0.22 0.22 0.23 0.23 0.24 0.23 0.23 0.22 0.22 0.22 0.23 0.22 0.22 0.21 0.22 0.22 0.21 0.21 0.21 0.20 0.20 0.20 0.20 0.20 0.20 0.19 0.18 0.18 0.19 0.19 0.19 0.20 0.20 0.19 0.19
0.59 0.59 0.54 0.46 0.40 0.41 0.37 0.32 0.30 0.28 0.31 0.39 0.42 0.46 0.48 0.49 0.48 0.47 0.39 0.32 0.38 0.41 0.43 0.41 0.40 0.41 0.42 0.40 0.40 0.40 0.36 0.30 0.28 0.29 0.30 0.29 0.28 0.27 0.25 0.23 0.23 0.23 0.23 0.24 0.23 0.23 0.23 0.23 0.23 0.23 0.22 0.22 0.20 0.21 0.21 0.21 0.21 0.20 0.19 0.19 0.19 0.19 0.19 0.19 0.19 0.20 0.19 0.19 0.20 0.20 0.20 0.20 0.20 0.19 0.19 0.18 0.18 0.18 0.18 0.18 0.19 0.19 0.20 0.19 0.19 0.19
0.50 0.49 0.48 0.42 0.38 0.39 0.37 0.33 0.30 0.34 0.34 0.39 0.43 0.44 0.46 0.47 0.46 0.40 0.27 0.27 0.36 0.39 0.41 0.41 0.39 0.39 0.39 0.39 0.38 0.35 0.31 0.27 0.27 0.25 0.26 0.25 0.24 0.23 0.22 0.22 0.22 0.22 0.23 0.23 0.24 0.24 0.23 0.23 0.22 0.20 0.19 0.18 0.18 0.19 0.19 0.19 0.18 0.17 0.17 0.17 0.17 0.17 0.17 0.17 0.17 0.18 0.18 0.18 0.18 0.19 0.18 0.18 0.18 0.18 0.18 0.18 0.18 0.18 0.18 0.19 0.19 0.19 0.19 0.19 0.19 0.19
0.42 0.43 0.44 0.37 0.38 0.38 0.36 0.34 0.36 0.37 0.44 0.44 0.44 0.44 0.44 0.44 0.41 0.29 0.24 0.29 0.35 0.36 0.38 0.37 0.35 0.35 0.35 0.33 0.33 0.29 0.28 0.27 0.26 0.24 0.23 0.23 0.21 0.21 0.21 0.21 0.22 0.23 0.22 0.21 0.21 0.22 0.20 0.20 0.19 0.17 0.17 0.17 0.18 0.18 0.18 0.17 0.16 0.16 0.16 0.16 0.15 0.15 0.15 0.16 0.17 0.17 0.17 0.17 0.17 0.17 0.17 0.18 0.18 0.18 0.18 0.19 0.19 0.19 0.19 0.19 0.19 0.19 0.19 0.19 0.18 0.18
0.40 0.41 0.40 0.41 0.36 0.34 0.35 0.32 0.32 0.36 0.43 0.44 0.45 0.44 0.43 0.38 0.28 0.26 0.31 0.35 0.34 0.33 0.34 0.33 0.32 0.32 0.31 0.29 0.29 0.28 0.27 0.26 0.25 0.23 0.21 0.20 0.19 0.19 0.20 0.20 0.21 0.21 0.20 0.19 0.19 0.19 0.18 0.17 0.17 0.17 0.17 0.18 0.18 0.17 0.17 0.17 0.16 0.15 0.15 0.15 0.14 0.15 0.16 0.17 0.17 0.16 0.16 0.16 0.17 0.17 0.18 0.18 0.18 0.19 0.19 0.19 0.19 0.19 0.19 0.19 0.19 0.19 0.18 0.18 0.18 0.17
0.38 0.36 0.33 0.34 0.37 0.38 0.35 0.31 0.29 0.24 0.35 0.44 0.41 0.39 0.39 0.31 0.32 0.37 0.35 0.34 0.34 0.33 0.33 0.32 0.31 0.30 0.30 0.28 0.27 0.26 0.25 0.23 0.21 0.20 0.20 0.19 0.18 0.18 0.18 0.18 0.17 0.17 0.16 0.16 0.16 0.17 0.17 0.16 0.15 0.15 0.16 0.16 0.17 0.17 0.17 0.16 0.15 0.15 0.15 0.14 0.14 0.16 0.17 0.17 0.16 0.16 0.16 0.17 0.17 0.17 0.18 0.18 0.19 0.19 0.19 0.19 0.19 0.19 0.19 0.19 0.18 0.18 0.17 0.17 0.17 0.17
0.44 0.35 0.34 0.36 0.39 0.30 0.30 0.27 0.27 0.33 0.38 0.41 0.39 0.32 0.34 0.37 0.38 0.37 0.35 0.33 0.33 0.33 0.32 0.31 0.29 0.29 0.27 0.25 0.24 0.23 0.22 0.21 0.20 0.19 0.19 0.18 0.18 0.18 0.17 0.17 0.16 0.16 0.16 0.16 0.16 0.16 0.16 0.15 0.15 0.14 0.15 0.16 0.16 0.16 0.17 0.16 0.15 0.15 0.14 0.14 0.16 0.17 0.17 0.17 0.17 0.17 0.17 0.17 0.18 0.18 0.19 0.19 0.19 0.20 0.20 0.20 0.19 0.19 0.18 0.17 0.17 0.17 0.17 0.17 0.17 0.17
0.41 0.37 0.38 0.32 0.39 0.34 0.30 0.33 0.38 0.40 0.40 0.41 0.40 0.39 0.39 0.40 0.39 0.37 0.35 0.33 0.32 0.31 0.30 0.28 0.26 0.26 0.25 0.24 0.22 0.21 0.20 0.19 0.18 0.18 0.18 0.17 0.17 0.16 0.16 0.16 0.16 0.16 0.16 0.15 0.15 0.16 0.16 0.15 0.14 0.14 0.15 0.16 0.16 0.16 0.16 0.17 0.15 0.14 0.13 0.15 0.16 0.16 0.17 0.17 0.18 0.18 0.18 0.18 0.18 0.19 0.19 0.20 0.20 0.20 0.20 0.19 0.19 0.18 0.17 0.16 0.16 0.16 0.17 0.17 0.17 0.17
0.40 0.41 0.40 0.37 0.35 0.39 0.38 0.38 0.38 0.39 0.38 0.37 0.39 0.40 0.38 0.38 0.38 0.36 0.34 0.31 0.30 0.29 0.28 0.26 0.24 0.24 0.23 0.22 0.20 0.19 0.18 0.18 0.18 0.18 0.18 0.17 0.17 0.16 0.17 0.17 0.17 0.17 0.16 0.16 0.16 0.16 0.15 0.15 0.15 0.15 0.14 0.15 0.16 0.16 0.16 0.16 0.16 0.14 0.13 0.15 0.16 0.17 0.17 0.18 0.18 0.18 0.18 0.18 0.19 0.19 0.19 0.19 0.19 0.19 0.19 0.19 0.18 0.17 0.16 0.16 0.16 0.16 0.16 0.17 0.17 0.17
0.38 0.38 0.37 0.33 0.34 0.31 0.28 0.34 0.36 0.36 0.36 0.36 0.37 0.38 0.38 0.37 0.36 0.34 0.31 0.28 0.26 0.25 0.24 0.23 0.22 0.21 0.21 0.21 0.19 0.18 0.18 0.18 0.17 0.17 0.17 0.17 0.17 0.17 0.17 0.17 0.16 0.16 0.16 0.16 0.16 0.16 0.15 0.15 0.14 0.14 0.14 0.14 0.15 0.16 0.16 0.16 0.16 0.16 0.16 0.16 0.17 0.17 0.17 0.18 0.18 0.18 0.18 0.18 0.19 0.19 0.19 0.19 0.19 0.19 0.19 0.18 0.17 0.17 0.16 0.16 0.16 0.16 0.16 0.17 0.17 0.17
0.32 0.38 0.33 0.32 0.31 0.29 0.28 0.29 0.32 0.34 0.35 0.36 0.37 0.36 0.33 0.32 0.32 0.31 0.29 0.27 0.25 0.24 0.23 0.22 0.21 0.20 0.20 0.19 0.18 0.17 0.17 0.17 0.17 0.16 0.17 0.17 0.17 0.18 0.17 0.17 0.17 0.17 0.17 0.17 0.16 0.16 0.15 0.15 0.14 0.14 0.14 0.14 0.15 0.16 0.16 0.16 0.16 0.17 0.17 0.17 0.17 0.17 0.17 0.17 0.18 0.18 0.18 0.18 0.19 0.19 0.19 0.19 0.19 0.19 0.19 0.18 0.17 0.16 0.16 0.17 0.17 0.17 0.17 0.17 0.17 0.16
0.34 0.34 0.28 0.29 0.27 0.28 0.29 0.29 0.29 0.29 0.30 0.31 0.32 0.32 0.31 0.30 0.28 0.27 0.26 0.24 0.22 0.20 0.20 0.20 0.19 0.18 0.18 0.18 0.18 0.18 0.17 0.17 0.17 0.17 0.17 0.17 0.17 0.17 0.17 0.17 0.17 0.17 0.17 0.16 0.16 0.16 0.15 0.15 0.15 0.14 0.14 0.14 0.15 0.16 0.16 0.17 0.17 0.18 0.18 0.17 0.18 0.18 0.17 0.17 0.18 0.18 0.18 0.18 0.19 0.19 0.19 0.20 0.20 0.20 0.19 0.18 0.18 0.17 0.17 0.17 0.17 0.17 0.17 0.17 0.17 0.17
0.30 0.26 0.27 0.26 0.24 0.23 0.24 0.26 0.29 0.25 0.25 0.28 0.29 0.28 0.27 0.27 0.25 0.23 0.22 0.21 0.20 0.18 0.18 0.18 0.18 0.19 0.19 0.19 0.19 0.18 0.18 0.18 0.18 0.18 0.17 0.17 0.17 0.17 0.18 0.18 0.17 0.17 0.17 0.17 0.17 0.17 0.16 0.16 0.15 0.15 0.15 0.15 0.16 0.17 0.17 0.17 0.18 0.18 0.19 0.19 0.19 0.18 0.18 0.18 0.18 0.18 0.18 0.18 0.19 0.19 0.19 0.20 0.20 0.20 0.20 0.19 0.18 0.17 0.17 0.17 0.18 0.17 0.17 0.17 0.17 0.17
0.26 0.26 0.25 0.23 0.23 0.22 0.27 0.30 0.30 0.28 0.25 0.24 0.23 0.23 0.23 0.22 0.21 0.19 0.18 0.18 0.19 0.19 0.19 0.19 0.18 0.18 0.19 0.19 0.20 0.19 0.19 0.18 0.18 0.18 0.17 0.17 0.17 0.17 0.18 0.18 0.17 0.17 0.17 0.18 0.17 0.17 0.16 0.16 0.16 0.16 0.16 0.16 0.17 0.17 0.17 0.17 0.18 0.19 0.19 0.20 0.20 0.19 0.19 0.19 0.19 0.19 0.19 0.19 0.19 0.19 0.20 0.20 0.20 0.20 0.20 0.19 0.18 0.17 0.17 0.17 0.17 0.18 0.18 0.18 0.18 0.18
Wind_Speed
18 19 19 19 18 18 19 20 19 16 15 16 17 17 18 19 18 16 16 17 17 19 20 20 22 22 21 21 18 17 18 19 19 18 17 16 16 16 16 15 14 13 13 12 12 12 12 11 11 11 10 10 10 10 10 10 10 10 10 10 10 11 11 12 12 12 13 13 14 14 14 14 15 16 16 16 17 17 18 18 18 18 18 19 19 19
20 21 21 20 18 18 20 20 18 17 17 18 18 19 19 20 19 18 17 18 18 20 21 20 22 23 22 22 18 17 19 19 19 18 17 17 17 16 15 15 14 13 13 13 13 12 12 11 11 12 12 12 12 11 11 11 11 11 11 11 11 12 13 13 14 14 14 14 14 14 14 14 15 15 16 16 16 17 18 18 18 18 18 19 19 19
21 23 22 18 16 17 19 19 19 20 19 19 19 20 20 19 20 19 18 18 19 20 21 19 21 23 22 22 19 18 19 19 18 18 17 17 17 16 15 15 15 14 14 14 13 13 12 12 12 13 13 13 13 12 12 12 12 12 12 12 13 13 14 14 14 14 14 14 14 14 14 14 15 15 16 16 17 17 18 18 19 19 19 20 20 20
22 22 20 17 17 18 18 19 20 20 20 21 20 21 21 19 19 20 18 18 19 20 20 20 22 23 22 22 20 18 18 17 17 17 17 17 17 16 16 15 15 15 15 15 14 13 13 13 13 13 14 13 13 13 13 13 13 13 13 13 13 14 14 14 15 14 14 14 15 15 14 14 15 16 17 17 18 19 19 20 20 20 21 21 21 21
23 20 19 18 19 20 19 19 20 21 21 22 22 22 22 21 21 22 19 19 20 20 20 21 23 23 21 21 19 16 17 17 16 17 17 18 17 17 16 16 16 16 16 15 14 14 14 14 14 14 14 14 14 14 13 13 13 13 13 13 14 14 14 14 14 14 15 15 15 16 16 16 17 17 18 19 19 20 20 21 21 21 22 22 22 22
25 20 19 19 21 22 22 21 21 22 22 23 23 24 24 23 23 22 20 20 22 21 20 20 21 20 16 17 17 14 15 16 16 17 18 17 17 17 17 17 17 16 16 15 15 15 14 14 14 15 15 15 15 14 14 14 14 14 14 14 14 14 15 15 15 16 16 17 17 18 18 18 19 19 20 21 21 21 21 22 22 23 23 23 23 23
24 21 20 21 22 22 23 23 22 22 23 24 23 23 25 25 23 22 21 21 21 20 18 18 20 19 17 16 14 13 15 16 15 16 17 16 16 17 17 17 17 17 16 16 15 15 15 15 15 15 15 15 15 15 14 14 14 14 15 15 15 16 16 16 17 17 18 18 19 19 19 19 20 21 21 21 22 22 23 23 23 24 24 24 25 25
22 21 21 22 22 23 24 24 21 22 24 24 22 22 23 24 23 22 22 22 22 20 19 19 20 21 21 18 14 14 17 18 18 18 17 17 17 17 17 17 17 17 16 16 16 16 16 16 16 16 16 16 15 15 15 15 15 15 16 16 16 17 17 18 18 19 19 20 20 20 20 20 21 22 22 22 23 23 24 24 24 25 25 26 26 26
22 22 23 22 22 23 23 22 20 22 25 24 22 22 21 21 22 21 21 22 21 22 22 20 18 21 23 20 16 16 18 19 19 18 18 17 17 18 18 17 17 16 16 16 16 16 16 17 17 17 16 16 16 16 16 16 16 17 17 17 17 18 18 19 19 20 20 21 21 21 22 22 22 23 23 24 24 25 25 26 26 26 27 27 28 28
23 23 23 23 23 23 22 20 21 23 24 22 21 20 20 19 19 20 21 22 21 23 24 20 19 21 22 20 18 16 18 18 17 16 16 17 18 18 17 17 17 16 16 16 16 17 17 17 17 17 17 17 16 16 16 16 17 17 18 18 18 19 19 20 20 21 21 22 22 23 23 23 23 24 25 25 26 26 27 27 28 28 29 29 30 30
23 23 24 24 24 23 21 20 21 22 22 21 21 20 19 19 19 20 21 21 21 24 23 21 21 22 22 20 18 17 16 15 14 14 15 16 16 16 16 16 16 16 16 17 17 17 17 17 17 17 17 17 17 17 17 17 17 18 18 18 19 20 20 21 21 22 23 23 24 24 24 25 25 25 26 27 28 28 29 29 30 30 31 31 32 32
24 25 24 24 24 22 21 21 21 22 22 22 22 20 19 19 19 20 20 20 22 22 19 18 20 23 23 20 16 16 14 13 14 14 14 15 15 15 15 16 16 17 17 17 18 17 17 17 17 18 18 17 17 17 17 18 18 19 19 20 20 21 21 22 23 23 24 25 25 25 26 26 27 27 28 28 29 30 30 31 31 32 32 33 33 34
25 26 24 24 24 24 23 22 21 22 23 23 22 21 20 19 19 20 20 20 22 21 17 17 18 21 24 22 19 17 14 13 14 13 13 15 15 15 16 17 17 18 18 18 18 18 18 19 19 19 18 18 18 18 18 19 19 20 20 21 22 22 23 23 24 25 25 26 26 27 27 28 28 29 29 30 31 31 32 32 33 34 34 35 35 36
24 24 23 24 25 25 25 24 23 23 23 24 23 22 21 19 19 21 20 19 21 20 18 18 19 20 22 21 22 19 14 13 13 13 13 14 15 16 17 17 18 18 19 19 19 19 20 20 20 19 19 19 19 19 20 20 21 21 22 22 23 23 24 25 25 26 26 27 28 28 29 29 30 31 31 32 33 33 34 34 35 35 36 36 36 37
23 23 23 24 23 24 26 26 24 22 22 24 23 23 23 21 20 20 19 19 19 17 17 18 19 20 18 16 17 17 14 14 14 14 15 15 16 17 17 17 18 19 20 20 20 20 21 21 20 20 20 20 20 21 21 22 22 22 23 24 24 25 25 26 27 27 28 29 29 30 30 31 32 32 33 33 34 34 35 35 36 36 37 37 37 37
24 25 23 22 22 22 24 24 22 21 22 23 22 23 24 23 21 20 19 19 18 18 19 20 20 20 18 16 16 16 16 16 16 16 16 17 17 17 17 18 19 20 20 20 21 22 22 22 21 21 21 22 22 22 23 23 23 24 25 25 26 27 27 28 28 29 29 30 30 31 31 32 33 33 34 34 35 35 36 36 37 37 37 38 38 38
24 24 22 22 22 22 22 22 22 23 23 22 23 25 23 22 21 21 20 19 19 22 22 21 22 21 21 20 18 17 17 17 17 18 17 17 17 17 18 19 20 21 21 22 22 23 23 23 23 23 23 23 24 24 25 25 25 26 27 27 28 28 29 29 30 30 31 31 31 32 32 33 34 34 35 36 36 37 37 38 38 38 38 38 38 38
24 24 23 22 23 22 22 22 22 24 24 22 24 24 21 21 22 22 21 20 20 23 22 21 23 22 21 21 19 18 19 19 19 18 18 18 18 19 20 21 22 22 22 23 24 24 24 24 24 24 24 25 26 26 26 27 28 28 29 29 29 30 30 31 31 31 32 32 33 33 34 34 35 36 36 37 37 38 38 39 39 39 39 39 39 39
25 25 23 23 23 22 23 24 23 24 25 24 24 23 21 22 22 21 22 21 21 23 22 21 23 24 23 22 20 20 21 21 20 18 18 19 19 20 22 22 23 23 24 25 25 25 25 25 26 26 27 28 28 28 28 29 29 30 30 30 31 31 32 32 32 33 33 34 34 35 35 36 36 37 37 38 38 39 39 40 40 40 40 40 39 39
25 25 24 23 23 23 24 26 26 25 24 24 24 23 23 23 22 21 22 21 21 22 22 21 22 23 24 24 22 23 22 21 19 18 19 21 22 23 23 23 24 25 26 26 26 26 26 27 28 28 28 29 29 29 30 30 31 31 32 32 32 33 33 33 34 34 35 36 36 36 36 37 37 38 38 38 39 40 40 40 40 40 40 39 39 39
26 27 25 24 24 25 26 27 27 26 25 25 26 25 25 24 22 22 24 23 22 22 22 23 23 22 22 23 22 22 21 19 18 19 21 23 23 24 24 24 25 26 27 27 28 28 29 29 30 29 29 30 30 30 31 32 32 33 33 34 34 34 34 35 35 36 37 37 37 37 37 38 38 38 39 39 40 40 40 40 40 39 39 39 39 39
27 28 27 25 26 27 27 26 26 26 27 27 28 28 27 26 23 23 24 23 23 23 22 23 24 23 21 22 21 20 20 19 20 22 23 24 24 24 25 25 27 28 29 29 29 30 31 31 31 30 30 31 31 32 32 33 34 34 35 35 36 36 36 37 37 38 38 38 38 38 38 39 39 39 40 40 40 40 40 39 39 39 39 38 39 39
26 27 27 27 28 27 26 26 26 27 27 28 29 29 28 28 27 25 24 22 23 25 24 23 24 23 22 22 21 20 21 22 24 25 25 25 25 25 26 27 28 29 30 30 31 31 32 32 31 31 31 32 33 33 34 35 35 36 37 37 37 38 38 38 39 39 39 39 39 39 39 39 40 40 40 40 40 40 39 39 39 39 38 38 39 39
26 27 28 27 26 26 26 27 27 26 27 29 31 29 29 30 29 27 26 23 24 26 24 23 25 24 23 23 23 23 24 25 26 26 26 26 26 27 28 28 29 30 30 31 32 32 32 32 32 32 33 33 34 35 35 36 37 38 38 39 39 39 39 39 39 39 39 40 40 40 40 40 40 40 40 40 40 40 39 39 39 39 39 39 39 39
27 27 26 24 24 25 25 26 28 28 28 30 30 29 30 30 28 27 27 26 27 28 26 25 26 25 24 25 25 26 26 27 28 28 28 28 28 29 29 29 30 31 31 32 33 33 33 33 33 34 34 35 36 36 37 38 39 40 40 40 40 40 40 40 40 40 41 41 41 41 41 40 41 41 40 40 40 39 39 39 39 39 39 39 39 39
27 28 28 26 26 26 26 26 28 28 28 29 30 30 32 32 31 30 29 28 29 27 27 30 29 25 25 27 27 27 28 29 30 30 30 31 30 30 30 31 31 31 32 33 34 34 34 35 35 36 36 37 37 38 38 39 40 41 41 41 41 41 41 41 41 41 41 41 41 41 41 41 41 41 40 40 40 39 39 39 39 40 40 40 40 40
28 29 32 33 32 31 30 29 28 27 28 31 31 31 33 34 34 33 31 32 30 27 30 34 31 28 29 29 30 30 31 32 32 31 32 32 32 32 32 32 32 32 33 34 34 35 36 37 38 38 38 38 38 39 40 41 42 42 42 42 42 42 42 42 42 42 42 43 42 42 42 42 41 41 40 40 40 40 40 40 40 40 40 40 40 40
28 31 34 36 37 35 31 30 29 28 31 34 33 34 34 34 35 36 36 35 30 29 33 33 30 32 34 31 32 33 32 33 32 32 33 33 33 33 32 33 33 34 35 35 36 37 37 38 39 38 39 39 39 40 41 42 43 43 43 42 42 42 43 43 43 43 43 43 43 43 42 42 41 41 41 40 40 40 40 41 41 41 40 41 41 41
30 33 34 35 37 36 32 32 32 31 31 32 33 35 35 34 36 39 39 36 32 34 37 32 31 36 35 32 33 33 33 33 33 33 34 33 33 34 34 34 35 36 36 36 37 38 38 39 39 39 39 39 40 41 41 43 43 43 42 42 43 43 43 43 44 44 44 43 43 43 43 42 42 42 41 41 40 41 41 41 41 41 41 41 41 42
32 34 33 32 36 36 33 33 34 32 32 32 33 35 35 36 38 39 39 38 36 39 39 33 34 38 35 32 34 33 33 33 33 33 34 34 35 35 36 37 37 37 37 38 38 39 39 39 39 39 40 40 40 41 42 42 42 42 43 43 43 44 44 44 44 44 44 44 44 44 43 43 43 42 41 41 41 41 41 41 41 42 42 42 42 43
34 34 32 31 34 35 34 34 34 33 33 34 35 36 36 36 36 37 38 37 37 40 39 36 38 40 37 34 34 33 33 33 33 34 35 35 36 36 37 38 38 38 38 38 39 39 39 39 39 39 40 41 41 41 41 42 42 43 43 44 44 45 44 44 44 44 44 44 44 44 44 43 43 42 42 42 42 42 42 42 42 42 43 43 44 44
35 34 32 31 34 35 34 34 34 34 33 36 40 41 39 36 34 36 37 37 38 39 38 38 41 41 37 34 34 34 34 34 34 35 36 37 37 38 38 38 38 38 38 38 38 39 39 39 39 40 41 42 42 42 42 42 43 43 44 44 44 45 44 44 44 44 44 44 44 44 44 43 43 42 42 42 42 43 42 43 43 43 44 44 45 45
35 35 33 33 34 35 34 34 34 32 32 37 42 42 39 37 36 36 37 38 39 38 37 39 41 39 35 34 34 35 35 35 36 36 37 38 38 38 38 38 37 38 38 38 39 39 39 39 39 39 40 41 42 42 42 42 42 43 43 44 44 44 44 44 44 44 44 44 44 44 43 43 43 43 43 43 43 43 43 43 44 44 45 45 46 46
36 36 35 34 33 33 33 32 31 30 33 37 38 37 37 38 38 38 40 41 40 39 38 38 37 35 34 34 35 35 36 37 37 38 38 38 38 38 38 38 39 39 39 39 39 38 39 39 39 39 40 40 40 40 40 40 41 41 42 42 42 42 43 43 43 43 43 43 43 43 44 44 44 44 44 44 44 44 44 45 45 45 46 46 46 47
37 37 35 34 32 31 30 29 29 32 36 36 34 33 34 35 36 38 40 40 39 39 39 37 36 34 34 34 35 35 37 37 37 38 38 38 38 38 38 39 39 39 39 39 39 39 39 39 39 39 39 39 38 38 38 38 39 39 39 39 40 40 41 42 42 43 43 43 43 44 44 44 44 44 44 44 44 45 45 45 46 46 47 47 47 46
36 37 35 33 31 30 29 30 31 32 33 33 33 33 32 30 31 34 36 37 37 37 37 37 37 34 33 34 34 34 35 35 36 37 37 37 37 38 38 38 38 38 39 38 38 38 38 38 38 38 38 37 37 37 37 37 37 38 38 38 39 39 40 41 41 42 43 43 43 44 44 44 44 44 44 44 45 45 46 46 46 47 46 46 45 45
36 36 35 33 32 30 30 33 32 32 32 33 34 34 33 30 30 33 35 37 36 36 36 36 37 35 33 32 33 32 33 33 35 37 37 37 38 38 38 38 38 38 38 37 37 38 38 37 37 36 36 36 36 36 36 37 37 37 37 38 38 39 39 40 41 42 42 43 43 43 43 43 44 44 44 45 45 46 46 46 46 45 45 44 44 43
35 36 35 34 33 31 31 31 31 32 33 33 33 33 33 32 31 32 34 36 35 35 35 36 36 35 32 31 31 31 32 34 37 37 36 37 38 38 38 38 38 37 37 37 37 36 36 36 36 35 36 36 36 36 36 36 37 37 37 37 38 38 39 39 40 41 42 42 42 42 43 43 43 44 44 44 45 45 45 44 44 43 43 43 42 42
34 34 34 34 32 32 32 32 32 33 33 32 32 32 32 32 30 29 32 35 35 35 35 35 34 33 31 31 31 31 32 36 37 36 35 36 37 37 37 37 37 36 36 36 36 36 35 35 35 35 36 36 36 37 36 36 36 36 37 37 38 38 39 39 40 40 41 41 42 42 42 43 43 43 43 43 43 42 42 42 41 41 41 41 41 41
33 33 33 34 34 33 34 33 33 34 33 32 32 32 32 32 30 29 31 34 34 33 33 33 33 32 31 31 32 32 34 36 36 35 35 35 36 36 36 36 35 36 36 36 35 35 35 35 35 36 36 37 37 36 36 36 36 36 37 37 38 38 39 39 40 40 40 41 41 41 41 41 41 41 40 40 40 40 40 40 40 40 40 40 40 40
32 32 32 34 34 33 34 33 32 33 33 33 33 33 32 31 31 32 33 33 32 33 32 32 33 32 32 32 32 34 35 36 35 35 35 34 34 35 35 35 35 35 35 35 35 35 35 36 36 36 36 36 36 35 35 35 35 36 37 37 38 38 39 39 40 40 40 40 40 39 39 39 39 38 38 39 39 38 38 38 38 38 38 38 39 39
31 30 31 32 33 32 33 32 32 33 33 32 31 33 33 32 32 33 33 32 32 33 33 33 34 33 33 34 35 35 36 35 35 35 34 34 34 34 34 34 34 35 35 35 35 35 36 36 36 36 36 36 35 35 35 35 35 36 37 37 38 39 39 39 39 39 38 38 37 37 37 37 37 37 37 37 37 37 38 37 37 37 37 37 37 38
29 29 30 31 31 30 30 31 31 32 33 31 29 32 34 34 33 33 32 32 33 33 34 35 35 35 35 36 36 36 36 36 36 35 35 35 34 34 34 34 34 35 35 35 35 36 36 36 36 36 36 35 35 35 35 35 36 36 37 38 38 38 38 38 37 37 36 36 36 36 36 36 36 36 36 36 37 37 37 36 36 36 36 36 36 36
30 30 30 31 31 30 31 32 32 33 33 31 30 32 34 33 32 32 31 32 33 34 35 36 36 36 36 36 36 37 36 36 36 36 35 35 35 34 35 35 35 35 35 35 36 36 36 36 36 36 36 36 35 35 36 36 36 37 38 38 38 37 37 36 36 35 35 35 35 35 36 36 36 35 36 36 36 36 36 35 35 35 35 35 35 36
30 30 30 31 32 31 32 34 34 34 33 33 33 33 32 32 32 32 32 33 34 35 35 36 36 36 36 36 36 36 37 37 37 36 36 35 35 35 35 35 35 35 35 35 36 36 36 36 36 36 36 36 36 36 36 37 37 37 37 37 36 36 35 35 35 35 35 35 35 35 35 35 35 35 35 35 35 35 35 35 35 35 35 35 35 36
30 30 30 31 32 32 33 34 34 34 34 34 33 32 31 31 32 33 34 34 35 35 35 36 36 35 35 36 36 36 36 36 36 36 36 36 36 36 35 35 35 35 35 35 36 36 36 36 36 37 37 37 37 37 37 37 37 37 37 36 35 35 35 35 35 35 35 35 35 35 35 34 34 34 34 34 34 34 34 34 35 35 35 35 35 36
31 31 31 32 33 33 33 34 34 34 35 35 34 32 32 33 33 34 35 36 36 36 36 36 35 35 35 36 36 36 36 36 36 36 37 37 37 37 36 35 35 35 35 35 36 36 36 36 37 37 38 38 38 38 38 37 37 37 36 36 35 36 36 36 36 36 36 36 35 35 35 34 34 34 34 34 34 34 34 34 35 35 35 36 36 36
32 31 32 34 34 34 34 34 34 34 34 36 35 34 34 34 35 35 36 36 35 35 35 35 35 35 35 36 36 36 35 35 36 36 37 37 37 37 36 36 35 35 35 35 35 36 36 36 37 38 38 39 38 38 37 37 37 37 37 37 36 37 37 37 37 37 37 36 36 36 35 35 35 34 34 34 34 34 35 35 35 36 36 36 36 36
32 33 34 34 34 35 35 35 34 34 34 35 36 36 35 35 35 35 35 35 34 34 34 35 35 35 35 35 36 36 36 36 36 36 36 37 37 36 36 36 36 35 35 35 36 36 36 37 38 38 38 38 38 37 37 37 37 37 37 38 38 38 38 38 38 38 38 37 37 36 36 36 35 35 35 35 35 35 36 36 36 37 37 37 37 37
33 34 35 34 35 35 35 35 34 34 34 35 36 36 36 35 34 34 34 34 34 34 34 35 35 35 36 36 36 36 36 36 36 36 36 36 36 36 36 36 36 36 36 36 36 37 37 37 38 38 38 38 37 37 38 38 38 38 38 39 39 39 39 39 39 39 39 38 38 37 37 37 36 36 36 36 36 36 37 37 37 38 38 38 38 38
34 34 34 34 35 35 34 33 34 33 33 33 34 35 34 34 34 34 34 35 35 35 35 35 35 36 36 37 37 37 37 36 36 36 36 36 36 36 36 37 37 37 37 37 37 37 37 37 37 37 38 38 38 38 39 39 40 40 40 40 40 40 40 40 40 40 40 39 39 38 38 38 37 37 37 37 37 37 38 38 38 39 39 39 39 40
Wind_Direction
260 258 257 260 260 256 253 254 261 269 270 268 267 266 265 265 266 267 268 272 273 271 268 267 268 269 267 265 260 260 264 264 263 262 260 259 257 256 256 257 259 261 263 265 266 268 270 269 268 268 271 273 275 278 279 280 281 282 283 285 286 288 290 291 292 293 294 296 296 296 298 300 302 304 305 306 306 307 307 306 304 303 301 300 298 297
259 257 258 260 262 259 255 256 262 266 264 265 265 265 265 264 266 268 269 271 272 271 270 269 269 268 267 266 262 259 262 262 261 260 259 257 255 255 255 255 258 260 262 262 264 266 268 269 268 269 271 273 276 278 279 280 280 282 283 284 286 289 291 292 292 292 293 295 297 297 297 299 302 303 304 304 305 305 306 305 304 303 302 300 299 298
257 258 260 261 261 261 260 260 260 262 263 263 263 264 265 266 269 270 268 270 270 270 271 271 270 269 267 265 261 259 261 263 263 262 260 256 254 254 254 255 257 258 259 259 262 263 265 268 269 270 272 274 276 277 277 278 279 279 281 283 286 289 290 291 291 291 292 294 296 297 297 298 300 302 304 304 304 304 304 304 303 301 300 299 298 298
257 260 262 257 255 257 260 260 257 261 262 260 261 262 263 266 269 269 270 271 270 270 273 274 273 271 269 265 261 261 264 266 264 261 259 255 254 254 254 256 256 255 255 257 259 261 263 266 269 271 273 274 275 276 276 277 277 278 280 283 286 288 289 290 291 291 292 294 296 297 298 298 298 300 302 302 301 300 300 300 300 299 298 297 296 295
257 262 261 254 253 254 258 258 256 259 261 259 258 260 263 265 266 267 272 274 271 269 271 274 275 273 269 265 263 263 263 262 260 256 254 252 252 253 253 254 254 254 254 255 256 259 262 265 268 271 272 273 274 275 276 277 277 278 281 284 286 287 288 288 289 290 291 293 294 295 295 295 295 296 297 297 296 296 297 296 297 297 296 295 294 294
258 259 257 254 255 255 256 258 255 257 262 262 258 258 262 265 265 266 270 273 271 269 269 271 272 271 269 265 263 261 258 256 254 251 251 250 249 250 251 251 252 253 255 256 257 259 262 264 267 269 271 272 273 275 276 276 277 278 280 282 284 285 285 286 287 288 289 290 291 292 292 293 293 293 293 293 293 294 294 294 294 295 295 294 293 293
259 258 257 256 255 254 256 259 256 257 261 264 263 260 261 264 265 265 265 267 268 269 270 268 267 269 271 267 259 255 256 253 251 250 248 247 247 247 249 249 250 252 254 256 257 259 261 264 266 268 270 272 273 274 274 275 276 277 278 280 281 283 284 285 287 289 289 289 290 291 292 292 291 290 290 290 290 291 292 292 292 293 293 293 293 293
257 256 257 256 255 255 256 259 257 255 259 264 267 265 261 262 262 262 262 262 265 269 268 264 264 268 270 267 259 256 259 257 251 248 246 245 246 246 247 248 249 251 253 254 256 258 261 264 266 268 270 272 272 273 273 274 275 276 277 278 280 282 284 286 288 289 289 290 291 291 291 291 290 289 288 287 288 290 290 290 291 291 292 292 292 292
258 254 254 253 254 256 258 262 257 252 259 266 268 267 264 264 264 261 260 261 266 269 265 260 260 265 267 265 263 261 262 261 254 247 243 241 242 245 246 247 249 251 252 254 256 258 261 264 266 268 270 272 272 273 274 274 274 275 277 278 280 282 285 286 288 288 289 289 290 290 289 289 288 287 287 287 288 289 289 289 289 290 290 291 292 292
261 259 258 255 255 257 260 266 259 254 260 264 264 266 266 267 266 262 261 262 264 265 262 256 252 261 268 264 260 261 261 261 256 249 243 238 239 243 245 247 249 251 253 255 257 260 263 265 268 269 271 272 272 273 273 273 274 276 277 279 281 283 285 286 287 287 288 288 288 288 287 287 286 286 286 286 287 288 288 288 289 289 289 290 291 291
260 261 261 258 259 260 260 265 265 262 261 258 259 262 263 264 263 262 262 263 264 263 262 258 250 255 266 265 258 257 259 259 255 250 244 238 239 243 245 247 249 251 253 256 259 262 265 267 269 270 270 271 272 272 272 273 275 277 279 281 282 284 285 285 286 286 286 287 286 286 286 286 285 285 285 286 287 287 287 288 288 289 289 290 290 291
258 258 259 259 260 261 259 262 265 264 260 257 258 257 257 260 260 260 260 259 261 263 264 263 254 251 258 263 262 258 254 252 252 250 243 237 239 242 245 248 250 252 255 257 260 262 264 266 268 269 270 271 271 271 272 273 276 279 281 282 282 284 284 284 284 285 285 285 285 285 285 285 285 285 286 286 286 286 287 288 288 289 290 290 291 292
257 257 259 260 260 258 257 258 260 260 258 256 253 249 250 256 257 257 258 258 261 263 265 263 256 253 257 260 263 262 255 249 248 249 246 241 240 243 247 251 253 254 256 257 260 262 263 265 267 268 269 271 272 273 274 276 279 281 282 282 283 283 284 283 283 284 284 284 284 285 285 285 285 286 286 286 287 287 288 288 289 290 290 291 292 292
258 260 258 257 260 257 253 253 254 254 252 249 246 243 246 251 256 257 258 262 264 263 263 260 256 259 261 261 261 259 256 252 246 245 252 250 247 249 252 253 254 255 257 259 261 263 265 267 268 269 271 273 275 276 277 279 281 282 283 283 283 284 283 283 283 283 283 283 284 285 285 285 286 286 287 287 288 288 289 289 290 290 291 292 292 292
256 262 256 254 259 254 250 254 255 252 249 249 249 248 247 248 254 258 259 262 265 263 259 256 256 258 259 261 260 255 252 252 249 249 256 258 258 259 257 256 257 258 260 263 264 265 267 267 269 271 273 275 276 276 277 279 280 281 282 283 283 283 283 283 283 283 283 284 284 285 285 285 286 286 287 288 288 289 289 290 291 291 291 292 292 292
257 263 261 262 263 253 250 256 256 250 249 253 252 249 249 251 254 260 262 261 264 265 258 253 257 260 259 260 259 254 250 248 250 256 259 263 266 264 261 259 260 260 262 264 265 266 267 268 270 272 273 275 276 277 278 279 279 280 281 282 283 283 283 283 283 283 283 284 285 285 285 286 286 287 288 288 289 289 289 290 291 291 291 291 291 291
258 264 264 264 263 256 255 256 253 250 250 250 247 246 251 255 254 256 260 261 262 264 260 254 257 260 260 260 256 252 251 249 251 258 262 267 269 266 263 261 260 261 262 263 265 266 266 268 271 272 273 275 276 277 278 278 279 280 281 281 282 282 282 282 282 282 283 284 285 285 285 285 286 286 287 288 288 289 289 290 290 290 291 291 291 291
258 263 263 261 260 258 259 256 253 254 251 247 247 247 251 255 254 253 258 259 257 260 262 255 254 254 253 257 255 249 251 251 253 259 265 269 269 267 265 262 261 262 263 263 265 266 268 269 270 272 274 276 277 277 278 278 279 280 281 281 281 281 281 281 282 282 283 284 284 284 284 285 286 286 287 287 288 289 289 290 290 290 290 291 291 291
258 262 263 261 259 257 256 252 250 251 252 252 252 251 249 250 250 248 252 257 256 258 263 258 254 253 250 251 251 249 251 253 256 262 266 268 268 268 267 264 263 263 263 264 266 267 269 270 271 274 275 276 277 277 278 279 279 280 280 281 281 281 281 281 281 282 282 283 284 284 284 285 286 286 287 288 288 289 289 289 289 290 290 290 291 291
257 259 262 262 260 256 252 249 246 246 249 252 252 249 249 251 252 248 249 256 257 259 263 262 259 257 253 250 249 249 253 255 257 263 267 268 268 268 268 266 264 263 263 264 266 268 269 271 273 274 275 276 276 277 278 279 279 279 279 279 279 280 280 280 281 281 282 283 284 284 285 285 286 287 287 288 289 289 289 289 289 290 290 290 291 291
255 257 260 261 258 253 249 248 247 245 244 244 244 243 244 247 251 253 253 254 257 260 262 264 264 261 258 257 251 250 254 257 258 265 271 272 270 270 270 268 265 264 264 265 267 269 270 272 274 275 276 276 277 277 278 278 278 278 278 278 278 278 279 279 280 281 282 283 283 284 284 285 286 287 288 289 289 289 289 289 289 290 290 291 291 292
253 255 257 256 253 251 252 254 254 251 248 246 244 242 241 242 245 252 255 253 255 259 261 264 267 264 260 260 259 257 260 264 267 272 277 277 274 273 273 270 268 266 265 266 268 270 271 273 275 276 276 277 277 277 277 277 277 277 277 277 277 278 279 279 280 281 282 283 283 284 285 286 287 288 289 289 288 288 288 289 290 290 291 291 291 292
254 254 254 254 253 253 256 255 253 253 253 251 249 247 244 243 242 247 255 255 252 255 259 263 267 265 260 259 262 264 268 273 276 278 280 280 278 277 274 272 271 269 268 269 270 271 273 274 276 276 276 276 276 276 276 276 276 276 276 276 277 278 278 279 281 282 282 283 283 284 285 286 287 288 288 288 287 288 289 289 290 290 291 291 291 292
252 251 251 253 255 255 254 252 251 251 250 249 250 249 247 247 246 249 255 256 253 252 254 259 263 261 259 260 265 269 273 277 279 278 279 280 280 279 276 274 273 271 271 272 272 273 274 275 276 276 276 276 276 275 275 276 276 276 276 276 276 277 278 280 281 281 282 283 284 284 285 285 286 287 287 287 287 288 288 289 289 290 290 290 291 292
246 247 247 249 253 252 250 249 248 247 247 249 249 247 246 247 247 250 253 255 257 253 248 254 261 259 258 263 268 272 275 277 279 278 278 279 279 279 279 278 276 274 274 273 273 273 273 273 274 274 275 275 275 275 275 275 275 275 275 276 276 277 279 280 281 282 282 283 284 284 284 284 285 286 286 286 287 287 287 288 289 289 290 290 291 291
246 246 242 242 246 247 247 248 249 248 248 250 249 245 244 243 242 246 250 251 256 255 249 252 260 262 264 268 269 271 274 276 278 279 278 278 279 279 280 280 278 277 276 275 274 273 273 273 273 273 274 274 274 274 274 274 275 275 275 275 276 277 279 280 281 282 283 283 283 283 283 284 285 286 286 286 286 286 287 287 288 288 289 290 291 291
250 249 242 242 245 247 250 253 253 251 247 248 248 246 245 244 243 245 248 249 253 258 256 255 258 262 265 266 267 269 272 275 278 279 278 277 278 279 280 280 279 279 278 277 276 275 274 273 272 272 273 273 273 274 274 274 274 274 274 275 276 277 279 280 281 281 282 282 282 283 283 284 284 285 285 285 285 285 286 286 287 288 289 290 291 291
250 249 245 245 248 251 255 256 254 251 249 248 248 247 246 245 244 243 247 250 253 256 259 259 257 260 262 262 265 268 270 274 277 276 275 276 277 279 280 280 280 280 280 279 278 276 275 274 273 273 273 273 274 274 274 274 274 274 274 275 276 277 278 279 280 280 281 281 282 282 282 283 284 284 284 284 284 285 285 286 287 288 289 290 290 291
248 249 249 249 250 252 254 255 255 255 255 253 250 248 247 245 243 243 247 251 251 253 259 261 257 260 263 262 264 268 269 272 275 274 274 276 277 278 278 279 280 281 280 279 278 277 276 275 274 274 273 274 274 274 274 274 274 274 275 275 276 277 278 279 279 280 280 280 280 281 282 283 284 284 284 283 284 284 285 286 287 287 288 289 290 290
249 251 252 251 252 252 252 253 255 255 257 256 253 251 249 247 246 246 248 251 251 254 260 262 260 263 266 265 266 269 271 272 273 274 274 276 276 276 277 278 279 280 280 279 278 278 278 278 277 276 275 274 274 273 273 273 274 274 274 275 276 276 277 278 278 279 279 279 280 280 281 282 283 283 283 283 283 284 285 285 286 287 288 288 289 290
248 251 253 253 254 254 252 253 254 254 256 257 256 254 252 251 250 250 251 252 254 257 262 263 264 266 267 267 269 271 271 272 272 272 273 274 275 276 277 278 279 279 279 280 280 280 281 281 280 278 276 275 273 273 273 273 274 274 275 275 276 276 276 277 277 277 278 279 279 280 281 282 282 282 282 282 283 284 284 285 286 286 287 288 289 290
247 251 253 253 254 255 253 252 252 255 258 257 256 254 251 251 251 252 254 254 254 257 261 262 265 268 269 269 271 271 270 271 271 271 272 274 275 276 276 277 278 279 280 281 281 282 282 282 281 279 277 275 274 274 274 274 274 274 275 275 275 275 275 276 276 277 277 278 279 279 280 281 281 281 282 282 283 283 284 285 285 286 286 287 289 290
247 249 251 251 253 256 256 252 251 255 256 256 255 253 250 250 253 254 256 256 255 256 259 261 265 269 270 269 270 270 270 271 271 271 272 274 275 275 276 277 278 280 281 281 282 283 283 282 281 280 278 277 275 275 275 275 275 275 275 275 275 275 275 275 275 276 277 278 279 279 279 280 280 281 281 282 282 283 284 284 285 285 286 288 289 290
248 247 249 251 254 257 256 252 250 250 251 256 259 255 251 250 251 253 256 257 256 257 260 265 268 268 267 266 266 268 269 270 271 271 273 274 274 275 276 277 279 280 281 282 283 282 282 282 282 281 280 279 278 277 276 276 276 276 276 276 276 275 275 274 275 276 277 278 278 278 279 280 280 281 281 281 282 283 283 284 285 286 287 288 289 290
246 246 248 250 252 255 252 247 247 250 252 258 264 262 258 255 253 253 257 258 257 258 261 265 266 265 265 266 267 267 267 269 271 271 273 274 274 275 276 277 279 280 281 282 282 282 282 281 281 281 280 279 279 278 278 278 277 277 277 276 275 275 275 274 275 275 276 277 278 278 279 279 280 280 281 281 282 282 283 284 285 286 287 288 289 289
245 245 247 247 248 250 247 242 247 255 257 258 263 263 262 260 257 256 259 260 258 258 259 261 263 265 266 267 268 269 268 269 271 272 273 274 275 275 276 278 279 280 281 281 281 281 281 280 280 280 280 280 280 280 280 279 279 278 277 277 276 275 275 275 275 275 276 277 278 278 279 279 279 280 281 281 282 283 283 284 285 286 287 288 288 289
245 244 245 245 245 247 247 246 252 261 260 257 258 259 258 259 258 257 260 261 259 258 259 260 263 265 266 266 266 267 268 270 273 274 273 274 275 276 277 279 280 281 281 282 281 281 280 280 280 280 280 281 281 281 281 280 279 279 278 278 278 277 276 276 276 276 276 277 278 278 279 279 280 281 282 282 283 283 284 284 285 286 286 287 287 288
247 245 244 245 246 246 247 250 254 258 259 258 258 258 260 262 261 259 262 263 263 260 258 260 262 263 264 264 263 265 268 272 275 276 275 274 274 276 278 279 280 281 281 281 281 280 280 280 280 280 281 281 281 281 281 280 280 279 279 279 279 278 277 277 277 277 277 278 279 279 280 280 281 282 282 283 283 283 284 284 285 285 286 286 287 288
245 246 246 246 247 245 246 250 253 255 259 261 262 262 263 262 260 262 264 264 264 262 259 259 261 261 260 261 262 266 270 273 276 278 276 275 276 276 277 278 280 280 280 280 279 279 279 280 280 281 281 281 281 280 280 280 280 279 279 279 279 279 279 279 279 279 279 280 280 281 281 282 282 283 283 283 283 283 283 284 285 285 286 286 287 287
241 244 245 246 247 246 247 251 254 256 259 262 262 262 262 262 261 261 264 266 266 264 261 259 260 260 260 260 264 268 272 274 277 278 277 277 278 277 277 278 279 278 278 278 279 280 280 280 280 281 280 280 280 280 279 279 279 279 279 279 279 279 279 279 280 281 281 282 282 282 282 283 283 283 283 283 284 284 284 284 285 285 286 286 287 288
241 243 245 245 247 247 247 251 255 257 258 260 260 260 261 263 261 258 262 266 266 263 261 259 260 262 262 262 265 270 273 274 277 279 278 278 278 278 278 279 278 278 278 279 279 280 281 281 281 281 280 280 280 279 279 279 279 279 279 279 279 279 280 281 282 283 283 283 283 283 283 283 283 283 284 284 284 284 285 285 285 286 286 287 287 288
240 243 245 245 246 247 249 253 257 258 258 259 261 262 262 262 260 260 263 265 263 260 260 261 262 265 265 265 267 271 273 274 276 278 278 277 278 279 279 279 278 279 279 280 281 281 281 281 281 281 280 280 279 279 279 279 279 279 279 279 279 280 281 283 284 284 283 283 283 283 283 283 283 284 284 285 285 285 285 285 286 286 286 287 287 288
241 242 244 245 246 248 251 253 256 260 259 256 258 262 263 262 262 262 263 264 263 261 260 262 265 266 266 268 269 270 272 274 275 277 278 278 279 280 279 278 279 279 280 281 281 281 281 281 281 280 279 279 278 278 279 279 279 279 279 279 280 282 283 284 284 283 283 284 284 284 284 284 284 284 284 284 285 285 285 285 285 286 286 287 288 289
242 242 245 247 247 248 250 251 256 262 259 254 257 263 262 262 263 262 261 262 263 263 262 264 266 267 267 269 269 269 272 274 275 277 278 278 279 279 279 279 279 280 280 280 281 281 280 281 281 280 279 278 278 278 279 279 279 279 280 280 281 282 283 283 283 283 283 283 283 283 284 284 284 284 284 284 285 285 285 285 285 285 286 287 288 289
246 247 249 251 252 253 255 257 262 264 259 256 263 267 261 258 261 261 260 262 264 265 266 266 267 267 267 268 269 270 272 274 275 276 277 277 278 278 278 279 279 279 280 280 280 280 280 280 280 280 279 279 278 278 279 279 279 279 280 281 281 281 281 282 282 283 283 283 283 283 283 283 283 284 284 284 284 284 284 284 284 285 285 286 287 289
252 253 254 256 256 258 261 261 263 265 261 258 264 266 259 258 261 262 263 265 266 267 267 267 267 267 267 267 269 271 272 274 275 276 277 277 278 278 278 279 278 278 279 279 280 280 280 280 280 280 279 279 279 278 279 279 279 280 280 281 280 280 281 281 282 282 282 282 282 282 282 283 283 284 284 284 284 284 284 284 284 284 285 286 287 288
253 253 255 258 258 259 261 261 263 265 262 259 261 264 262 262 264 265 266 267 267 267 267 268 269 269 268 268 270 272 273 274 275 276 277 278 278 278 278 278 278 277 278 279 279 280 280 280 280 279 279 279 278 278 278 279 279 280 280 280 280 280 281 281 281 282 282 281 281 281 281 282 283 283 284 284 283 284 284 284 284 284 285 286 287 288
253 253 255 258 259 260 262 263 265 266 264 261 261 264 264 263 264 265 267 268 269 268 268 269 270 269 269 270 271 273 275 275 275 276 277 277 278 278 278 277 277 277 278 279 279 279 279 279 279 279 279 278 278 277 277 278 279 279 280 280 280 280 280 280 281 281 281 281 280 280 281 281 282 283 283 283 283 283 283 284 284 284 285 286 287 289
254 254 257 260 260 261 263 263 263 265 266 263 262 262 262 263 264 264 266 268 269 269 269 269 270 270 271 271 272 273 275 275 276 277 277 277 277 278 277 276 276 277 278 278 278 279 279 280 280 280 279 278 277 276 276 277 278 279 280 280 280 280 280 280 280 280 280 279 279 279 280 280 281 282 282 282 282 283 283 284 284 285 285 286 287 289
256 257 259 260 260 262 263 261 260 264 266 264 261 260 261 263 264 265 266 268 268 268 268 269 270 271 272 273 273 274 275 276 277 277 277 277 277 276 275 275 276 277 278 279 279 279 280 280 280 279 279 279 278 277 276 277 278 279 280 280 280 280 279 279 280 280 279 278 278 278 278 279 279 281 281 282 282 282 283 284 284 284 285 286 287 288
257 259 259 260 262 263 262 259 258 263 266 264 261 260 262 263 264 265 266 267 268 268 269 269 270 272 273 274 274 274 275 276 276 276 277 277 277 276 275 275 276 277 278 279 279 280 279 279 279 279 279 279 279 278 277 278 278 279 280 280 280 279 279 279 279 279 278 278 277 276 276 277 278 279 280 281 281 282 283 284 284 284 284 285 286 287